Time,TemperatureF,DewpointF,PressureIn,WindDirection,WindDirectionDegrees,WindSpeedMPH,WindSpeedGustMPH,Humidity,HourlyPrecipIn,Conditions,Clouds,dailyrainin,SoftwareType,DateUTC
2013-02-22 00:00:00,38.8,17.1,30.29,North,0,3.0,8.0,41,0.00,,,0.00,meteohub,2013-02-22 05:00:00,
2013-02-22 00:01:00,38.8,17.1,30.29,North,0,3.0,8.0,41,0.00,,,0.00,meteohub,2013-02-22 05:01:00,
2013-02-22 00:06:00,38.7,17.6,30.30,North,0,4.0,8.0,42,0.00,,,0.00,meteohub,2013-02-22 05:06:00,
2013-02-22 00:11:00,38.7,17.6,30.30,North,0,3.0,4.0,42,0.00,,,0.00,meteohub,2013-02-22 05:11:00,
2013-02-22 00:16:00,38.5,17.4,30.30,North,0,2.0,6.0,42,0.00,,,0.00,meteohub,2013-02-22 05:16:00,
2013-02-22 00:21:00,38.5,17.4,30.30,North,0,1.0,6.0,42,0.00,,,0.00,meteohub,2013-02-22 05:21:00,
2013-02-22 00:26:00,38.3,17.8,30.30,NW,315,3.0,6.0,43,0.00,,,0.00,meteohub,2013-02-22 05:26:00,
2013-02-22 00:31:00,38.3,17.8,30.31,East,90,2.0,4.0,43,0.00,,,0.00,meteohub,2013-02-22 05:31:00,
2013-02-22 00:36:00,38.1,18.1,30.30,SW,225,2.0,4.0,44,0.00,,,0.00,meteohub,2013-02-22 05:36:00,
2013-02-22 00:41:00,38.1,18.7,30.31,South,180,4.0,4.0,45,0.00,,,0.00,meteohub,2013-02-22 05:41:00,
2013-02-22 00:46:00,37.9,18.5,30.32,SE,135,4.0,4.0,45,0.00,,,0.00,meteohub,2013-02-22 05:46:00,
2013-02-22 00:51:00,37.9,18.5,30.32,North,0,2.0,4.0,45,0.00,,,0.00,meteohub,2013-02-22 05:51:00,
2013-02-22 00:56:00,37.9,18.5,30.32,NE,45,2.0,4.0,45,0.00,,,0.00,meteohub,2013-02-22 05:56:00,
2013-02-22 01:01:00,37.8,18.3,30.32,West,270,2.0,4.0,45,0.00,,,0.00,meteohub,2013-02-22 06:01:00,
2013-02-22 01:06:00,37.8,18.3,30.32,West,270,2.0,4.0,45,0.00,,,0.00,meteohub,2013-02-22 06:06:00,
2013-02-22 01:11:00,37.6,18.1,30.33,North,0,3.0,4.0,45,0.00,,,0.00,meteohub,2013-02-22 06:11:00,
2013-02-22 01:16:00,37.4,18.0,30.33,SE,135,2.0,4.0,45,0.00,,,0.00,meteohub,2013-02-22 06:16:00,
2013-02-22 01:21:00,37.4,18.0,30.33,North,0,5.0,5.0,45,0.00,,,0.00,meteohub,2013-02-22 06:21:00,
2013-02-22 01:26:00,37.4,18.0,30.33,NE,45,9.0,9.0,45,0.00,,,0.00,meteohub,2013-02-22 06:26:00,
2013-02-22 01:31:00,37.2,15.6,30.33,SE,135,3.0,9.0,41,0.00,,,0.00,meteohub,2013-02-22 06:31:00,
2013-02-22 01:36:00,37.2,15.6,30.33,North,0,4.0,9.0,41,0.00,,,0.00,meteohub,2013-02-22 06:36:00,
2013-02-22 01:41:00,37.2,15.6,30.33,North,0,4.0,9.0,41,0.00,,,0.00,meteohub,2013-02-22 06:41:00,
2013-02-22 01:46:00,37.2,15.6,30.33,South,180,2.0,5.0,41,0.00,,,0.00,meteohub,2013-02-22 06:46:00,
2013-02-22 01:51:00,37.2,15.6,30.33,NE,45,4.0,4.0,41,0.00,,,0.00,meteohub,2013-02-22 06:51:00,
2013-02-22 01:56:00,37.2,15.6,30.33,SE,135,2.0,4.0,41,0.00,,,0.00,meteohub,2013-02-22 06:56:00,
2013-02-22 02:01:00,37.2,15.6,30.32,NE,45,3.0,4.0,41,0.00,,,0.00,meteohub,2013-02-22 07:01:00,
2013-02-22 02:06:00,37.0,15.4,30.32,East,90,4.0,4.0,41,0.00,,,0.00,meteohub,2013-02-22 07:06:00,
2013-02-22 02:11:00,37.0,15.4,30.33,West,270,4.0,5.0,41,0.00,,,0.00,meteohub,2013-02-22 07:11:00,
2013-02-22 02:16:00,37.0,16.2,30.32,South,180,3.0,5.0,42,0.00,,,0.00,meteohub,2013-02-22 07:16:00,
2013-02-22 02:21:00,37.0,16.2,30.32,NE,45,3.0,5.0,42,0.00,,,0.00,meteohub,2013-02-22 07:21:00,
2013-02-22 02:26:00,37.0,15.4,30.32,East,90,5.0,5.0,41,0.00,,,0.00,meteohub,2013-02-22 07:26:00,
2013-02-22 02:31:00,36.9,16.0,30.32,North,0,5.0,8.0,42,0.00,,,0.00,meteohub,2013-02-22 07:31:00,
2013-02-22 02:36:00,36.9,16.0,30.32,NNW,338,5.0,8.0,42,0.00,,,0.00,meteohub,2013-02-22 07:36:00,
2013-02-22 02:41:00,36.7,16.3,30.32,East,90,4.0,8.0,43,0.00,,,0.00,meteohub,2013-02-22 07:41:00,
2013-02-22 02:46:00,36.5,16.7,30.32,NE,45,5.0,5.0,44,0.00,,,0.00,meteohub,2013-02-22 07:46:00,
2013-02-22 02:51:00,36.3,16.5,30.32,South,180,2.0,5.0,44,0.00,,,0.00,meteohub,2013-02-22 07:51:00,
2013-02-22 02:56:00,36.3,16.5,30.32,NE,45,4.0,5.0,44,0.00,,,0.00,meteohub,2013-02-22 07:56:00,
2013-02-22 03:01:00,36.1,16.3,30.32,NNW,338,5.0,5.0,44,0.00,,,0.00,meteohub,2013-02-22 08:01:00,
2013-02-22 03:06:00,36.1,16.3,30.33,NNW,338,5.0,5.0,44,0.00,,,0.00,meteohub,2013-02-22 08:06:00,
2013-02-22 03:11:00,36.0,16.2,30.33,SW,225,4.0,5.0,44,0.00,,,0.00,meteohub,2013-02-22 08:11:00,
2013-02-22 03:16:00,36.0,16.2,30.33,NE,45,6.0,6.0,44,0.00,,,0.00,meteohub,2013-02-22 08:16:00,
2013-02-22 03:21:00,36.0,16.2,30.33,South,180,2.0,6.0,44,0.00,,,0.00,meteohub,2013-02-22 08:21:00,
2013-02-22 03:26:00,35.6,17.4,30.33,NE,45,2.0,8.0,47,0.00,,,0.00,meteohub,2013-02-22 08:26:00,
2013-02-22 03:31:00,35.2,19.4,30.31,NE,45,8.0,12.0,52,0.00,,,0.00,meteohub,2013-02-22 08:31:00,
2013-02-22 03:36:00,34.7,19.8,30.29,East,90,5.0,12.0,54,0.00,,,0.00,meteohub,2013-02-22 08:36:00,
2013-02-22 03:41:00,34.3,20.3,30.28,East,90,8.0,12.0,56,0.00,,,0.00,meteohub,2013-02-22 08:41:00,
2013-02-22 03:46:00,33.8,21.0,30.27,North,0,8.0,11.0,59,0.00,,,0.00,meteohub,2013-02-22 08:46:00,
2013-02-22 03:51:00,33.3,22.1,30.28,SW,225,3.0,11.0,63,0.00,,,0.00,meteohub,2013-02-22 08:51:00,
2013-02-22 03:56:00,33.1,22.3,30.31,South,180,2.0,8.0,64,0.00,,,0.00,meteohub,2013-02-22 08:56:00,
2013-02-22 04:01:00,32.9,22.1,30.31,South,180,2.0,8.0,64,0.00,,,0.00,meteohub,2013-02-22 09:01:00,
2013-02-22 04:06:00,32.7,22.3,30.32,SW,225,4.0,4.0,65,0.00,,,0.00,meteohub,2013-02-22 09:06:00,
2013-02-22 04:11:00,32.5,22.5,30.29,NE,45,4.0,6.0,66,0.00,,,0.00,meteohub,2013-02-22 09:11:00,
2013-02-22 04:16:00,32.4,22.3,30.29,North,0,7.0,8.0,66,0.00,,,0.00,meteohub,2013-02-22 09:16:00,
2013-02-22 04:21:00,32.4,21.9,30.29,NW,315,4.0,8.0,65,0.00,,,0.00,meteohub,2013-02-22 09:21:00,
2013-02-22 04:26:00,32.4,21.9,30.28,East,90,4.0,8.0,65,0.00,,,0.00,meteohub,2013-02-22 09:26:00,
2013-02-22 04:31:00,32.4,21.9,30.29,NW,315,9.0,9.0,65,0.00,,,0.00,meteohub,2013-02-22 09:31:00,
2013-02-22 04:36:00,32.4,21.6,30.29,NE,45,4.0,9.0,64,0.00,,,0.00,meteohub,2013-02-22 09:36:00,
2013-02-22 04:41:00,32.4,21.2,30.30,NE,45,3.0,9.0,63,0.00,,,0.00,meteohub,2013-02-22 09:41:00,
2013-02-22 04:46:00,32.4,21.2,30.28,NW,315,2.0,9.0,63,0.00,,,0.00,meteohub,2013-02-22 09:46:00,
2013-02-22 04:51:00,32.4,21.2,30.27,East,90,3.0,4.0,63,0.00,,,0.00,meteohub,2013-02-22 09:51:00,
2013-02-22 04:56:00,32.4,21.6,30.27,East,90,3.0,3.0,64,0.00,,,0.00,meteohub,2013-02-22 09:56:00,
2013-02-22 05:01:00,32.4,21.6,30.28,East,90,2.0,4.0,64,0.00,,,0.00,meteohub,2013-02-22 10:01:00,
2013-02-22 05:06:00,32.4,21.6,30.27,East,90,2.0,4.0,64,0.00,,,0.00,meteohub,2013-02-22 10:06:00,
2013-02-22 05:11:00,32.2,21.4,30.27,NE,45,4.0,4.0,64,0.00,,,0.00,meteohub,2013-02-22 10:11:00,
2013-02-22 05:16:00,32.0,21.2,30.27,NE,45,6.0,6.0,64,0.00,,,0.00,meteohub,2013-02-22 10:16:00,
2013-02-22 05:21:00,32.0,21.2,30.28,NE,45,2.0,6.0,64,0.00,,,0.00,meteohub,2013-02-22 10:21:00,
2013-02-22 05:26:00,32.0,21.2,30.28,North,0,3.0,6.0,64,0.00,,,0.00,meteohub,2013-02-22 10:26:00,
2013-02-22 05:31:00,32.0,21.6,30.28,NW,315,3.0,6.0,65,0.00,,,0.00,meteohub,2013-02-22 10:31:00,
2013-02-22 05:36:00,32.0,21.2,30.28,North,0,3.0,4.0,64,0.00,,,0.00,meteohub,2013-02-22 10:36:00,
2013-02-22 05:41:00,31.8,21.4,30.28,North,0,2.0,4.0,65,0.00,,,0.00,meteohub,2013-02-22 10:41:00,
2013-02-22 05:46:00,31.8,21.7,30.28,NE,45,2.0,4.0,66,0.00,,,0.00,meteohub,2013-02-22 10:46:00,
2013-02-22 05:51:00,31.6,21.6,30.29,NE,45,4.0,4.0,66,0.00,,,0.00,meteohub,2013-02-22 10:51:00,
2013-02-22 05:56:00,31.6,21.6,30.28,NE,45,5.0,5.0,66,0.00,,,0.00,meteohub,2013-02-22 10:56:00,
2013-02-22 06:01:00,31.5,21.7,30.29,NE,45,2.0,5.0,67,0.00,,,0.00,meteohub,2013-02-22 11:01:00,
2013-02-22 06:06:00,31.3,21.6,30.29,East,90,2.0,5.0,67,0.00,,,0.00,meteohub,2013-02-22 11:06:00,
2013-02-22 06:11:00,31.3,21.6,30.29,NE,45,2.0,5.0,67,0.00,,,0.00,meteohub,2013-02-22 11:11:00,
2013-02-22 06:16:00,31.3,21.6,30.28,NE,45,2.0,2.0,67,0.00,,,0.00,meteohub,2013-02-22 11:16:00,
2013-02-22 06:21:00,31.1,22.5,30.28,NE,45,2.0,2.0,70,0.00,,,0.00,meteohub,2013-02-22 11:21:00,
2013-02-22 06:26:00,30.9,22.6,30.28,NE,45,2.0,3.0,71,0.00,,,0.00,meteohub,2013-02-22 11:26:00,
2013-02-22 06:31:00,30.9,23.0,30.28,NE,45,2.0,3.0,72,0.01,,,0.01,meteohub,2013-02-22 11:31:00,
2013-02-22 06:36:00,30.7,23.2,30.28,NW,315,4.0,4.0,73,0.01,,,0.01,meteohub,2013-02-22 11:36:00,
2013-02-22 06:41:00,30.7,23.2,30.28,NE,45,2.0,4.0,73,0.01,,,0.01,meteohub,2013-02-22 11:41:00,
2013-02-22 06:46:00,30.6,22.6,30.28,East,90,2.0,4.0,72,0.01,,,0.01,meteohub,2013-02-22 11:46:00,
2013-02-22 06:51:00,30.6,22.6,30.28,NE,45,3.0,4.0,72,0.01,,,0.01,meteohub,2013-02-22 11:51:00,
2013-02-22 06:56:00,30.4,22.1,30.29,North,0,2.0,6.0,71,0.01,,,0.01,meteohub,2013-02-22 11:56:00,
2013-02-22 07:01:00,30.4,22.1,30.28,NE,45,2.0,6.0,71,0.01,,,0.01,meteohub,2013-02-22 12:01:00,
2013-02-22 07:06:00,30.4,22.1,30.29,NE,45,2.0,6.0,71,0.01,,,0.01,meteohub,2013-02-22 12:06:00,
2013-02-22 07:11:00,30.4,21.7,30.29,SE,135,2.0,5.0,70,0.01,,,0.01,meteohub,2013-02-22 12:11:00,
2013-02-22 07:16:00,30.4,21.7,30.30,NE,45,2.0,5.0,70,0.01,,,0.01,meteohub,2013-02-22 12:16:00,
2013-02-22 07:21:00,30.2,21.6,30.29,NE,45,4.0,5.0,70,0.01,,,0.01,meteohub,2013-02-22 12:21:00,
2013-02-22 07:26:00,30.2,21.9,30.30,NE,45,1.0,4.0,71,0.01,,,0.01,meteohub,2013-02-22 12:26:00,
2013-02-22 07:31:00,30.2,22.3,30.30,SW,225,2.0,4.0,72,0.00,,,0.01,meteohub,2013-02-22 12:31:00,
2013-02-22 07:37:00,30.2,22.3,30.30,NE,45,2.0,4.0,72,0.00,,,0.01,meteohub,2013-02-22 12:37:00,
2013-02-22 07:42:00,30.2,22.3,30.30,SE,135,3.0,4.0,72,0.00,,,0.01,meteohub,2013-02-22 12:42:00,
2013-02-22 07:47:00,30.2,22.3,30.30,SSE,158,5.0,5.0,72,0.00,,,0.01,meteohub,2013-02-22 12:47:00,
2013-02-22 07:52:00,30.2,21.9,30.31,South,180,2.0,5.0,71,0.00,,,0.01,meteohub,2013-02-22 12:52:00,
2013-02-22 07:57:00,30.2,21.9,30.31,NE,45,2.0,5.0,71,0.00,,,0.01,meteohub,2013-02-22 12:57:00,
2013-02-22 08:02:00,30.2,21.6,30.31,North,0,3.0,5.0,70,0.00,,,0.01,meteohub,2013-02-22 13:02:00,
2013-02-22 08:07:00,30.2,21.6,30.30,SE,135,2.0,4.0,70,0.00,,,0.01,meteohub,2013-02-22 13:07:00,
2013-02-22 08:12:00,30.2,21.6,30.30,East,90,4.0,4.0,70,0.00,,,0.01,meteohub,2013-02-22 13:12:00,
2013-02-22 08:17:00,30.2,21.6,30.30,NE,45,4.0,4.0,70,0.00,,,0.01,meteohub,2013-02-22 13:17:00,
2013-02-22 08:22:00,30.2,21.9,30.30,NE,45,3.0,4.0,71,0.00,,,0.01,meteohub,2013-02-22 13:22:00,
2013-02-22 08:27:00,30.2,21.9,30.31,South,180,3.0,4.0,71,0.00,,,0.01,meteohub,2013-02-22 13:27:00,
2013-02-22 08:32:00,30.2,21.9,30.31,South,180,3.0,5.0,71,0.00,,,0.01,meteohub,2013-02-22 13:32:00,
2013-02-22 08:37:00,30.4,22.1,30.31,NE,45,2.0,5.0,71,0.00,,,0.01,meteohub,2013-02-22 13:37:00,
2013-02-22 08:42:00,30.4,21.7,30.31,East,90,2.0,5.0,70,0.00,,,0.01,meteohub,2013-02-22 13:42:00,
2013-02-22 08:47:00,30.4,21.7,30.32,ENE,68,2.0,5.0,70,0.00,,,0.01,meteohub,2013-02-22 13:47:00,
2013-02-22 08:52:00,30.6,21.9,30.32,NE,45,2.0,4.0,70,0.00,,,0.01,meteohub,2013-02-22 13:52:00,
2013-02-22 08:57:00,30.6,21.9,30.32,NW,315,3.0,4.0,70,0.00,,,0.01,meteohub,2013-02-22 13:57:00,
2013-02-22 09:02:00,30.6,21.9,30.32,NE,45,2.0,6.0,70,0.00,,,0.01,meteohub,2013-02-22 14:02:00,
2013-02-22 09:07:00,30.6,21.9,30.32,NE,45,2.0,6.0,70,0.00,,,0.01,meteohub,2013-02-22 14:07:00,
2013-02-22 09:12:00,30.9,22.6,30.32,South,180,1.0,6.0,71,0.00,,,0.01,meteohub,2013-02-22 14:12:00,
2013-02-22 09:17:00,31.1,23.2,30.31,North,0,2.0,2.0,72,0.00,,,0.01,meteohub,2013-02-22 14:17:00,
2013-02-22 09:22:00,31.3,23.4,30.31,South,180,2.0,3.0,72,0.00,,,0.01,meteohub,2013-02-22 14:22:00,
2013-02-22 09:27:00,31.3,23.4,30.31,NW,315,2.0,3.0,72,0.00,,,0.01,meteohub,2013-02-22 14:27:00,
2013-02-22 09:32:00,31.5,23.5,30.31,South,180,3.0,3.0,72,0.00,,,0.01,meteohub,2013-02-22 14:32:00,
2013-02-22 09:37:00,31.3,23.0,30.31,East,90,2.0,3.0,71,0.00,,,0.01,meteohub,2013-02-22 14:37:00,
2013-02-22 09:42:00,31.3,23.0,30.30,East,90,2.0,3.0,71,0.00,,,0.01,meteohub,2013-02-22 14:42:00,
2013-02-22 09:47:00,31.3,23.0,30.30,NE,45,5.0,5.0,71,0.00,,,0.01,meteohub,2013-02-22 14:47:00,
2013-02-22 09:52:00,31.3,23.0,30.30,NE,45,3.0,5.0,71,0.00,,,0.01,meteohub,2013-02-22 14:52:00,
2013-02-22 09:57:00,31.3,23.0,30.30,NE,45,2.0,5.0,71,0.00,,,0.01,meteohub,2013-02-22 14:57:00,
2013-02-22 10:02:00,31.3,23.0,30.29,NE,45,2.0,5.0,71,0.00,,,0.01,meteohub,2013-02-22 15:02:00,
2013-02-22 10:07:00,31.6,23.4,30.29,NE,45,3.0,4.0,71,0.00,,,0.01,meteohub,2013-02-22 15:07:00,
2013-02-22 10:12:00,32.0,23.7,30.30,NE,45,4.0,4.0,71,0.00,,,0.01,meteohub,2013-02-22 15:12:00,
2013-02-22 10:17:00,32.2,23.5,30.29,SE,135,3.0,4.0,70,0.00,,,0.01,meteohub,2013-02-22 15:17:00,
2013-02-22 10:22:00,32.4,23.7,30.29,South,180,2.0,4.0,70,0.00,,,0.01,meteohub,2013-02-22 15:22:00,
2013-02-22 10:27:00,32.7,24.1,30.29,NE,45,6.0,6.0,70,0.00,,,0.01,meteohub,2013-02-22 15:27:00,
2013-02-22 10:32:00,32.7,24.1,30.29,North,0,4.0,6.0,70,0.00,,,0.01,meteohub,2013-02-22 15:32:00,
2013-02-22 10:37:00,32.7,23.7,30.29,NE,45,2.0,6.0,69,0.00,,,0.01,meteohub,2013-02-22 15:37:00,
2013-02-22 10:42:00,32.7,23.7,30.29,NE,45,4.0,6.0,69,0.00,,,0.01,meteohub,2013-02-22 15:42:00,
2013-02-22 10:47:00,32.5,23.2,30.29,SE,135,2.0,6.0,68,0.00,,,0.01,meteohub,2013-02-22 15:47:00,
2013-02-22 10:52:00,32.7,23.4,30.30,North,0,7.0,7.0,68,0.00,,,0.01,meteohub,2013-02-22 15:52:00,
2013-02-22 10:57:00,32.9,23.5,30.29,North,0,4.0,7.0,68,0.00,,,0.01,meteohub,2013-02-22 15:57:00,
2013-02-22 11:02:00,32.9,23.5,30.28,North,0,4.0,7.0,68,0.00,,,0.01,meteohub,2013-02-22 16:02:00,
2013-02-22 11:07:00,32.9,23.5,30.28,North,0,4.0,7.0,68,0.00,,,0.01,meteohub,2013-02-22 16:07:00,
2013-02-22 11:12:00,33.3,23.9,30.29,North,0,3.0,6.0,68,0.00,,,0.01,meteohub,2013-02-22 16:12:00,
2013-02-22 11:17:00,33.4,24.1,30.28,South,180,4.0,7.0,68,0.00,,,0.01,meteohub,2013-02-22 16:17:00,
2013-02-22 11:22:00,34.0,24.3,30.29,South,180,1.0,7.0,67,0.00,,,0.01,meteohub,2013-02-22 16:22:00,
2013-02-22 11:27:00,34.3,24.1,30.29,SE,135,2.0,7.0,66,0.00,,,0.01,meteohub,2013-02-22 16:27:00,
2013-02-22 11:32:00,34.5,24.6,30.28,SE,135,2.0,6.0,67,0.00,,,0.01,meteohub,2013-02-22 16:32:00,
2013-02-22 11:37:00,34.9,25.0,30.28,South,180,2.0,6.0,67,0.00,,,0.01,meteohub,2013-02-22 16:37:00,
2013-02-22 11:42:00,34.7,24.1,30.28,SE,135,2.0,6.0,65,0.00,,,0.01,meteohub,2013-02-22 16:42:00,
2013-02-22 11:47:00,34.2,23.5,30.28,NE,45,6.0,6.0,65,0.01,,,0.02,meteohub,2013-02-22 16:47:00,
2013-02-22 11:52:00,33.6,23.2,30.28,NE,45,2.0,7.0,65,0.01,,,0.02,meteohub,2013-02-22 16:52:00,
2013-02-22 11:57:00,33.4,23.0,30.28,North,0,4.0,8.0,65,0.01,,,0.02,meteohub,2013-02-22 16:57:00,
2013-02-22 12:02:00,33.6,23.5,30.28,North,0,3.0,8.0,66,0.01,,,0.02,meteohub,2013-02-22 17:02:00,
2013-02-22 12:07:00,34.0,23.9,30.27,NE,45,3.0,7.0,66,0.01,,,0.02,meteohub,2013-02-22 17:07:00,
2013-02-22 12:12:00,34.3,23.7,30.27,NW,315,4.0,7.0,65,0.01,,,0.02,meteohub,2013-02-22 17:12:00,
2013-02-22 12:17:00,34.5,23.9,30.27,North,0,4.0,7.0,65,0.01,,,0.02,meteohub,2013-02-22 17:17:00,
2013-02-22 12:22:00,34.5,23.9,30.27,SE,135,4.0,6.0,65,0.01,,,0.02,meteohub,2013-02-22 17:22:00,
2013-02-22 12:27:00,34.5,23.9,30.27,SW,225,2.0,5.0,65,0.01,,,0.02,meteohub,2013-02-22 17:27:00,
2013-02-22 12:32:00,34.5,23.5,30.27,NE,45,2.0,5.0,64,0.01,,,0.02,meteohub,2013-02-22 17:32:00,
2013-02-22 12:37:00,34.7,24.1,30.27,North,0,3.0,4.0,65,0.01,,,0.02,meteohub,2013-02-22 17:37:00,
2013-02-22 12:42:00,34.9,24.3,30.27,SW,225,2.0,4.0,65,0.00,,,0.02,meteohub,2013-02-22 17:42:00,
2013-02-22 12:47:00,34.9,24.3,30.26,NE,45,2.0,4.0,65,0.00,,,0.02,meteohub,2013-02-22 17:47:00,
2013-02-22 12:52:00,35.1,24.4,30.25,WNW,293,2.0,4.0,65,0.00,,,0.02,meteohub,2013-02-22 17:52:00,
2013-02-22 12:57:00,35.1,24.1,30.25,NE,45,2.0,5.0,64,0.00,,,0.02,meteohub,2013-02-22 17:57:00,
2013-02-22 13:01:00,35.1,24.1,30.26,NW,315,2.0,6.0,64,0.00,,,0.02,meteohub,2013-02-22 18:01:00,
2013-02-22 13:06:00,35.1,24.1,30.25,NW,315,2.0,6.0,64,0.00,,,0.02,meteohub,2013-02-22 18:06:00,
2013-02-22 13:11:00,34.9,23.9,30.24,NE,45,6.0,6.0,64,0.00,,,0.02,meteohub,2013-02-22 18:11:00,
2013-02-22 13:16:00,35.1,24.1,30.24,SSE,158,3.0,6.0,64,0.00,,,0.02,meteohub,2013-02-22 18:16:00,
2013-02-22 13:21:00,35.2,24.3,30.24,North,0,2.0,6.0,64,0.00,,,0.02,meteohub,2013-02-22 18:21:00,
2013-02-22 13:26:00,35.6,24.3,30.24,NE,45,3.0,6.0,63,0.00,,,0.02,meteohub,2013-02-22 18:26:00,
2013-02-22 13:32:00,35.8,24.1,30.24,NE,45,6.0,6.0,62,0.00,,,0.02,meteohub,2013-02-22 18:32:00,
2013-02-22 13:36:00,35.6,23.9,30.24,NW,315,3.0,6.0,62,0.00,,,0.02,meteohub,2013-02-22 18:36:00,
2013-02-22 13:42:00,36.0,24.6,30.24,North,0,3.0,6.0,63,0.00,,,0.02,meteohub,2013-02-22 18:42:00,
2013-02-22 13:47:00,36.5,24.8,30.24,NE,45,6.0,7.0,62,0.00,,,0.02,meteohub,2013-02-22 18:47:00,
2013-02-22 13:52:00,36.5,24.8,30.24,North,0,2.0,7.0,62,0.00,,,0.02,meteohub,2013-02-22 18:52:00,
2013-02-22 13:57:00,36.7,25.0,30.24,North,0,5.0,7.0,62,0.00,,,0.02,meteohub,2013-02-22 18:57:00,
2013-02-22 14:02:00,36.7,25.0,30.23,NE,45,5.0,6.0,62,0.00,,,0.02,meteohub,2013-02-22 19:02:00,
2013-02-22 14:06:00,36.5,24.3,30.23,NE,45,6.0,8.0,61,0.00,,,0.02,meteohub,2013-02-22 19:06:00,
2013-02-22 14:12:00,36.5,24.3,30.23,NE,45,4.0,8.0,61,0.00,,,0.02,meteohub,2013-02-22 19:12:00,
2013-02-22 14:17:00,36.5,24.3,30.22,East,90,4.0,7.0,61,0.00,,,0.02,meteohub,2013-02-22 19:17:00,
2013-02-22 14:22:00,36.5,24.3,30.22,East,90,4.0,7.0,61,0.00,,,0.02,meteohub,2013-02-22 19:22:00,
2013-02-22 14:27:00,36.5,24.8,30.22,NW,315,4.0,7.0,62,0.00,,,0.02,meteohub,2013-02-22 19:27:00,
2013-02-22 14:32:00,36.5,24.8,30.22,NE,45,3.0,6.0,62,0.00,,,0.02,meteohub,2013-02-22 19:32:00,
2013-02-22 14:37:00,36.5,24.3,30.22,WNW,293,5.0,8.0,61,0.00,,,0.02,meteohub,2013-02-22 19:37:00,
2013-02-22 14:42:00,36.5,24.3,30.22,SE,135,4.0,8.0,61,0.00,,,0.02,meteohub,2013-02-22 19:42:00,
2013-02-22 14:47:00,36.5,24.8,30.22,SE,135,4.0,8.0,62,0.00,,,0.02,meteohub,2013-02-22 19:47:00,
2013-02-22 14:52:00,36.7,25.0,30.22,NW,315,4.0,6.0,62,0.00,,,0.02,meteohub,2013-02-22 19:52:00,
2013-02-22 14:57:00,36.7,25.0,30.22,NE,45,5.0,6.0,62,0.00,,,0.02,meteohub,2013-02-22 19:57:00,
2013-02-22 15:02:00,36.9,25.0,30.23,North,0,2.0,7.0,62,0.00,,,0.02,meteohub,2013-02-22 20:02:00,
2013-02-22 15:07:00,36.9,25.0,30.22,NE,45,3.0,7.0,62,0.00,,,0.02,meteohub,2013-02-22 20:07:00,
2013-02-22 15:12:00,36.9,25.0,30.22,NE,45,6.0,7.0,62,0.00,,,0.02,meteohub,2013-02-22 20:12:00,
2013-02-22 15:17:00,36.7,25.0,30.22,South,180,3.0,6.0,62,0.00,,,0.02,meteohub,2013-02-22 20:17:00,
2013-02-22 15:22:00,36.9,25.0,30.22,NW,315,2.0,6.0,62,0.00,,,0.02,meteohub,2013-02-22 20:22:00,
2013-02-22 15:27:00,37.2,25.3,30.22,South,180,6.0,6.0,62,0.00,,,0.02,meteohub,2013-02-22 20:27:00,
2013-02-22 15:32:00,37.0,25.2,30.22,East,90,4.0,6.0,62,0.00,,,0.02,meteohub,2013-02-22 20:32:00,
2013-02-22 15:37:00,37.0,25.2,30.22,NE,45,3.0,6.0,62,0.00,,,0.02,meteohub,2013-02-22 20:37:00,
2013-02-22 15:42:00,37.2,25.3,30.22,NE,45,3.0,6.0,62,0.00,,,0.02,meteohub,2013-02-22 20:42:00,
2013-02-22 15:47:00,37.4,27.1,30.22,North,0,4.0,5.0,66,0.00,,,0.02,meteohub,2013-02-22 20:47:00,
2013-02-22 15:52:00,37.4,27.1,30.22,NE,45,4.0,4.0,66,0.00,,,0.02,meteohub,2013-02-22 20:52:00,
2013-02-22 15:57:00,37.2,25.3,30.22,NE,45,4.0,5.0,62,0.00,,,0.02,meteohub,2013-02-22 20:57:00,
2013-02-22 16:02:00,37.2,25.3,30.21,NE,45,4.0,6.0,62,0.00,,,0.02,meteohub,2013-02-22 21:02:00,
2013-02-22 16:07:00,37.0,25.2,30.21,ENE,68,2.0,6.0,62,0.00,,,0.02,meteohub,2013-02-22 21:07:00,
2013-02-22 16:12:00,37.2,25.3,30.21,South,180,2.0,6.0,62,0.00,,,0.02,meteohub,2013-02-22 21:12:00,
2013-02-22 16:17:00,37.2,25.3,30.21,North,0,4.0,4.0,62,0.00,,,0.02,meteohub,2013-02-22 21:17:00,
2013-02-22 16:22:00,37.0,25.2,30.21,North,0,2.0,4.0,62,0.00,,,0.02,meteohub,2013-02-22 21:22:00,
2013-02-22 16:27:00,37.0,25.7,30.21,North,0,4.0,4.0,63,0.00,,,0.02,meteohub,2013-02-22 21:27:00,
2013-02-22 16:32:00,37.0,25.7,30.21,NNE,23,4.0,4.0,63,0.00,,,0.02,meteohub,2013-02-22 21:32:00,
2013-02-22 16:37:00,36.9,25.0,30.21,NE,45,4.0,4.0,62,0.00,,,0.02,meteohub,2013-02-22 21:37:00,
2013-02-22 16:42:00,36.7,25.0,30.21,NE,45,3.0,4.0,62,0.00,,,0.02,meteohub,2013-02-22 21:42:00,
2013-02-22 16:47:00,36.5,25.2,30.21,North,0,2.0,4.0,63,0.00,,,0.02,meteohub,2013-02-22 21:47:00,
2013-02-22 16:52:00,36.5,25.2,30.21,NE,45,4.0,4.0,63,0.00,,,0.02,meteohub,2013-02-22 21:52:00,
2013-02-22 16:57:00,36.3,25.0,30.21,NE,45,4.0,4.0,63,0.00,,,0.02,meteohub,2013-02-22 21:57:00,
2013-02-22 17:02:00,36.3,25.0,30.22,NE,45,2.0,5.0,63,0.00,,,0.02,meteohub,2013-02-22 22:02:00,
2013-02-22 17:07:00,36.3,25.0,30.21,North,0,2.0,5.0,63,0.00,,,0.02,meteohub,2013-02-22 22:07:00,
2013-02-22 17:12:00,36.1,24.8,30.22,NE,45,2.0,5.0,63,0.00,,,0.02,meteohub,2013-02-22 22:12:00,
2013-02-22 17:17:00,36.1,24.8,30.21,NE,45,4.0,4.0,63,0.00,,,0.02,meteohub,2013-02-22 22:17:00,
2013-02-22 17:22:00,36.1,24.8,30.20,NE,45,2.0,4.0,63,0.00,,,0.02,meteohub,2013-02-22 22:22:00,
2013-02-22 17:27:00,36.0,25.0,30.21,SE,135,2.0,5.0,64,0.00,,,0.02,meteohub,2013-02-22 22:27:00,
2013-02-22 17:32:00,36.0,25.0,30.20,NE,45,3.0,5.0,64,0.00,,,0.02,meteohub,2013-02-22 22:32:00,
2013-02-22 17:37:00,36.0,25.0,30.19,East,90,4.0,5.0,64,0.00,,,0.02,meteohub,2013-02-22 22:37:00,
2013-02-22 17:42:00,36.0,25.3,30.20,South,180,2.0,4.0,65,0.00,,,0.02,meteohub,2013-02-22 22:42:00,
2013-02-22 17:47:00,35.8,25.2,30.20,North,0,3.0,4.0,65,0.00,,,0.02,meteohub,2013-02-22 22:47:00,
2013-02-22 17:52:00,35.8,25.2,30.20,East,90,2.0,4.0,65,0.00,,,0.02,meteohub,2013-02-22 22:52:00,
2013-02-22 17:57:00,35.6,25.3,30.21,NE,45,3.0,4.0,66,0.00,,,0.02,meteohub,2013-02-22 22:57:00,
2013-02-22 18:02:00,35.6,25.7,30.20,SE,135,3.0,5.0,67,0.00,,,0.02,meteohub,2013-02-22 23:02:00,
2013-02-22 18:07:00,35.6,25.7,30.20,South,180,2.0,5.0,67,0.00,,,0.02,meteohub,2013-02-22 23:07:00,
2013-02-22 18:12:00,35.4,26.2,30.21,NE,45,3.0,5.0,69,0.00,,,0.02,meteohub,2013-02-22 23:12:00,
2013-02-22 18:17:00,35.4,26.2,30.20,NE,45,1.0,6.0,69,0.00,,,0.02,meteohub,2013-02-22 23:17:00,
2013-02-22 18:22:00,35.4,26.2,30.20,NE,45,2.0,6.0,69,0.00,,,0.02,meteohub,2013-02-22 23:22:00,
2013-02-22 18:27:00,35.4,26.6,30.20,East,90,3.0,6.0,70,0.00,,,0.02,meteohub,2013-02-22 23:27:00,
2013-02-22 18:32:00,35.2,26.4,30.21,NE,45,2.0,4.0,70,0.00,,,0.02,meteohub,2013-02-22 23:32:00,
2013-02-22 18:37:00,35.2,26.8,30.21,SW,225,2.0,4.0,71,0.00,,,0.02,meteohub,2013-02-22 23:37:00,
2013-02-22 18:42:00,35.2,26.8,30.21,South,180,2.0,3.0,71,0.00,,,0.02,meteohub,2013-02-22 23:42:00,
2013-02-22 18:47:00,35.1,27.0,30.21,SE,135,2.0,3.0,72,0.00,,,0.02,meteohub,2013-02-22 23:47:00,
2013-02-22 18:52:00,35.1,27.0,30.21,NE,45,2.0,3.0,72,0.00,,,0.02,meteohub,2013-02-22 23:52:00,
2013-02-22 18:57:00,35.1,27.0,30.21,South,180,2.0,3.0,72,0.00,,,0.02,meteohub,2013-02-22 23:57:00,
2013-02-22 19:02:00,35.1,27.0,30.20,NW,315,2.0,3.0,72,0.00,,,0.02,meteohub,2013-02-23 00:02:00,
2013-02-22 19:07:00,34.9,27.1,30.20,NE,45,2.0,4.0,73,0.00,,,0.00,meteohub,2013-02-23 00:07:00,
2013-02-22 19:12:00,34.9,27.1,30.20,NE,45,2.0,4.0,73,0.00,,,0.00,meteohub,2013-02-23 00:12:00,
2013-02-22 19:17:00,34.9,27.1,30.20,West,270,2.0,4.0,73,0.00,,,0.00,meteohub,2013-02-23 00:17:00,
2013-02-22 19:22:00,34.9,27.1,30.21,South,180,4.0,4.0,73,0.00,,,0.00,meteohub,2013-02-23 00:22:00,
2013-02-22 19:27:00,34.9,27.1,30.20,NE,45,6.0,8.0,73,0.00,,,0.00,meteohub,2013-02-23 00:27:00,
2013-02-22 19:32:00,34.9,27.1,30.20,NE,45,7.0,8.0,73,0.00,,,0.00,meteohub,2013-02-23 00:32:00,
2013-02-22 19:37:00,35.1,27.0,30.20,South,180,3.0,8.0,72,0.00,,,0.00,meteohub,2013-02-23 00:37:00,
2013-02-22 19:42:00,35.1,27.0,30.19,WSW,248,9.0,9.0,72,0.00,,,0.00,meteohub,2013-02-23 00:42:00,
2013-02-22 19:47:00,35.1,27.0,30.19,East,90,2.0,9.0,72,0.00,,,0.00,meteohub,2013-02-23 00:47:00,
2013-02-22 19:52:00,35.1,27.0,30.19,NE,45,4.0,9.0,72,0.00,,,0.00,meteohub,2013-02-23 00:52:00,
2013-02-22 19:57:00,35.1,27.0,30.18,NW,315,2.0,9.0,72,0.00,,,0.00,meteohub,2013-02-23 00:57:00,
2013-02-22 20:02:00,35.1,27.0,30.19,SE,135,2.0,4.0,72,0.00,,,0.00,meteohub,2013-02-23 01:02:00,
2013-02-22 20:07:00,35.1,27.0,30.19,NE,45,2.0,4.0,72,0.00,,,0.00,meteohub,2013-02-23 01:07:00,
2013-02-22 20:12:00,35.1,27.0,30.19,NE,45,2.0,2.0,72,0.00,,,0.00,meteohub,2013-02-23 01:12:00,
2013-02-22 20:17:00,35.1,27.0,30.19,SE,135,2.0,3.0,72,0.00,,,0.00,meteohub,2013-02-23 01:17:00,
2013-02-22 20:22:00,35.1,27.3,30.19,South,180,2.0,3.0,73,0.00,,,0.00,meteohub,2013-02-23 01:22:00,
2013-02-22 20:27:00,35.1,27.3,30.19,North,0,6.0,6.0,73,0.00,,,0.00,meteohub,2013-02-23 01:27:00,
2013-02-22 20:32:00,35.1,27.3,30.20,South,180,2.0,6.0,73,0.00,,,0.00,meteohub,2013-02-23 01:32:00,
2013-02-22 20:37:00,35.1,27.3,30.19,NE,45,4.0,6.0,73,0.00,,,0.00,meteohub,2013-02-23 01:37:00,
2013-02-22 20:42:00,35.1,27.7,30.20,SW,225,4.0,6.0,74,0.00,,,0.00,meteohub,2013-02-23 01:42:00,
2013-02-22 20:47:00,34.9,27.5,30.19,NE,45,8.0,8.0,74,0.00,,,0.00,meteohub,2013-02-23 01:47:00,
2013-02-22 20:52:00,34.9,27.5,30.20,NE,45,3.0,8.0,74,0.00,,,0.00,meteohub,2013-02-23 01:52:00,
2013-02-22 20:57:00,34.9,27.7,30.20,NE,45,2.0,8.0,75,0.00,,,0.00,meteohub,2013-02-23 01:57:00,
2013-02-22 21:02:00,34.9,27.7,30.20,East,90,2.0,8.0,75,0.00,,,0.00,meteohub,2013-02-23 02:02:00,
2013-02-22 21:07:00,34.9,27.7,30.19,NE,45,4.0,5.0,75,0.00,,,0.00,meteohub,2013-02-23 02:07:00,
2013-02-22 21:12:00,34.7,27.9,30.19,NE,45,4.0,4.0,76,0.00,,,0.00,meteohub,2013-02-23 02:12:00,
2013-02-22 21:17:00,34.7,27.9,30.19,South,180,3.0,5.0,76,0.00,,,0.00,meteohub,2013-02-23 02:17:00,
2013-02-22 21:22:00,34.7,27.9,30.19,North,0,6.0,6.0,76,0.00,,,0.00,meteohub,2013-02-23 02:22:00,
2013-02-22 21:27:00,34.7,28.2,30.19,East,90,2.0,6.0,77,0.00,,,0.00,meteohub,2013-02-23 02:27:00,
2013-02-22 21:32:00,34.5,28.0,30.19,South,180,2.0,6.0,77,0.00,,,0.00,meteohub,2013-02-23 02:32:00,
2013-02-22 21:37:00,34.5,28.0,30.20,East,90,4.0,6.0,77,0.00,,,0.00,meteohub,2013-02-23 02:37:00,
2013-02-22 21:42:00,34.5,28.4,30.20,SW,225,1.0,4.0,78,0.00,,,0.00,meteohub,2013-02-23 02:42:00,
2013-02-22 21:47:00,34.5,28.4,30.20,SW,225,1.0,4.0,78,0.00,,,0.00,meteohub,2013-02-23 02:47:00,
2013-02-22 21:52:00,34.5,28.4,30.19,SW,225,1.0,4.0,78,0.00,,,0.00,meteohub,2013-02-23 02:52:00,
2013-02-22 21:57:00,34.3,28.2,30.19,NW,315,2.0,3.0,78,0.00,,,0.00,meteohub,2013-02-23 02:57:00,
2013-02-22 22:02:00,34.3,28.2,30.19,North,0,2.0,3.0,78,0.00,,,0.00,meteohub,2013-02-23 03:02:00,
2013-02-22 22:07:00,34.3,28.2,30.20,NW,315,2.0,3.0,78,0.00,,,0.00,meteohub,2013-02-23 03:07:00,
2013-02-22 22:12:00,34.3,28.2,30.19,NE,45,2.0,3.0,78,0.00,,,0.00,meteohub,2013-02-23 03:12:00,
2013-02-22 22:17:00,34.3,28.2,30.20,SE,135,1.0,3.0,78,0.00,,,0.00,meteohub,2013-02-23 03:17:00,
2013-02-22 22:22:00,34.3,28.2,30.20,South,180,2.0,3.0,78,0.00,,,0.00,meteohub,2013-02-23 03:22:00,
2013-02-22 22:27:00,34.3,28.2,30.20,NE,45,2.0,3.0,78,0.00,,,0.00,meteohub,2013-02-23 03:27:00,
2013-02-22 22:32:00,34.3,28.2,30.20,NE,45,1.0,2.0,78,0.00,,,0.00,meteohub,2013-02-23 03:32:00,
2013-02-22 22:37:00,34.3,28.6,30.20,South,180,2.0,3.0,79,0.00,,,0.00,meteohub,2013-02-23 03:37:00,
2013-02-22 22:42:00,34.3,28.2,30.21,South,180,2.0,3.0,78,0.00,,,0.00,meteohub,2013-02-23 03:42:00,
2013-02-22 22:47:00,34.3,28.2,30.19,NE,45,3.0,3.0,78,0.00,,,0.00,meteohub,2013-02-23 03:47:00,
2013-02-22 22:52:00,34.3,28.2,30.19,North,0,2.0,3.0,78,0.00,,,0.00,meteohub,2013-02-23 03:52:00,
2013-02-22 22:57:00,34.3,28.2,30.19,South,180,4.0,4.0,78,0.00,,,0.00,meteohub,2013-02-23 03:57:00,
2013-02-22 23:02:00,34.3,28.2,30.19,WSW,248,2.0,4.0,78,0.00,,,0.00,meteohub,2013-02-23 04:02:00,
2013-02-22 23:07:00,34.3,28.2,30.18,WSW,248,2.0,4.0,78,0.00,,,0.00,meteohub,2013-02-23 04:07:00,
2013-02-22 23:12:00,34.3,28.2,30.19,NE,45,2.0,4.0,78,0.00,,,0.00,meteohub,2013-02-23 04:12:00,
2013-02-22 23:17:00,34.3,28.6,30.18,SE,135,3.0,3.0,79,0.00,,,0.00,meteohub,2013-02-23 04:17:00,
2013-02-22 23:22:00,34.2,28.4,30.18,NW,315,2.0,3.0,79,0.00,,,0.00,meteohub,2013-02-23 04:22:00,
2013-02-22 23:27:00,34.2,28.4,30.17,NE,45,2.0,3.0,79,0.00,,,0.00,meteohub,2013-02-23 04:27:00,
2013-02-22 23:32:00,34.2,28.4,30.17,NE,45,1.0,3.0,79,0.00,,,0.00,meteohub,2013-02-23 04:32:00,
2013-02-22 23:37:00,34.2,28.4,30.17,North,0,2.0,3.0,79,0.00,,,0.00,meteohub,2013-02-23 04:37:00,
2013-02-22 23:42:00,34.2,28.4,30.17,North,0,0.0,2.0,79,0.00,,,0.00,meteohub,2013-02-23 04:42:00,
2013-02-22 23:47:00,34.2,28.4,30.16,NW,315,1.0,2.0,79,0.00,,,0.00,meteohub,2013-02-23 04:47:00,
2013-02-22 23:52:00,34.2,28.4,30.15,North,0,1.0,2.0,79,0.00,,,0.00,meteohub,2013-02-23 04:52:00,
2013-02-22 23:57:00,34.2,28.4,30.15,NE,45,2.0,2.0,79,0.00,,,0.00,meteohub,2013-02-23 04:57:00,